Theta_e
299 291 289 289 292 294 295 294 293 294 293 291 289 288 288 288 288 289 290 291 292 290 289 289 291 292 294 294 292 293 292 292 291 291 292 291 293 295 296 297 301 304 306 309 309 312 315 317 320 321 323 323 323 324 324 323 324 325 325 323 323 325 327 328 328 326 327 326 324 324 326 327 329 329 330 329 329 328 327 326 325 324 324 324 324 322
298 290 289 293 294 295 295 295 294 293 293 291 288 287 287 288 287 290 291 293 292 290 288 288 289 291 292 292 290 290 291 293 293 292 292 292 292 294 296 296 298 302 305 304 305 309 313 316 317 319 321 319 321 322 323 322 323 325 325 324 324 324 325 328 329 327 327 328 328 327 327 327 326 327 327 328 329 329 327 326 326 326 327 327 326 323
289 288 292 294 296 297 296 295 295 293 292 291 288 287 287 287 289 290 291 292 292 291 286 286 288 290 291 292 291 289 292 294 295 295 295 294 293 293 294 295 297 297 300 301 305 308 311 314 316 317 319 320 322 323 323 324 324 324 324 325 325 324 324 326 328 328 327 327 326 326 322 326 319 321 327 329 329 328 328 327 327 327 328 327 325 324
284 288 293 296 296 295 294 294 294 293 292 291 289 286 285 287 287 285 288 290 291 289 287 286 286 289 291 290 290 290 292 293 295 295 295 295 295 295 295 296 297 297 299 299 301 304 308 311 315 316 317 319 320 321 322 323 323 324 324 325 325 325 325 325 326 325 328 327 323 319 317 320 322 321 320 322 323 326 326 326 327 327 327 325 324 323
287 290 295 295 295 294 292 292 291 290 289 291 290 288 287 288 287 286 287 289 290 290 287 285 285 286 287 289 289 291 292 292 294 293 293 293 294 296 295 294 296 298 299 299 299 299 303 307 311 315 317 318 318 319 321 322 323 325 324 325 325 325 325 325 324 324 325 321 318 316 313 314 315 313 319 320 322 325 324 327 327 327 326 324 323 323
289 293 295 293 293 293 292 290 290 290 288 289 291 290 290 290 289 288 290 289 286 286 287 288 281 279 281 285 290 293 291 291 293 292 293 294 295 294 293 295 296 297 298 299 299 299 300 305 309 312 314 316 317 319 321 322 323 324 324 325 325 325 325 325 324 324 323 323 323 318 319 317 317 317 318 321 323 324 323 326 328 327 327 326 325 323
290 291 294 292 291 291 291 290 291 292 288 287 289 293 292 291 290 289 288 287 281 280 285 287 282 274 280 284 287 289 288 291 290 290 293 294 294 294 295 296 296 297 297 296 297 298 298 301 306 310 312 315 316 318 319 321 322 323 324 324 325 325 325 325 324 322 321 322 323 322 322 322 320 320 320 319 319 324 324 324 325 326 325 326 326 324
290 289 291 292 290 289 289 288 290 292 289 286 292 292 293 292 290 289 289 287 282 285 288 284 281 278 279 283 284 285 285 288 290 290 291 293 293 294 295 296 296 297 297 298 297 298 299 300 304 308 311 314 316 317 318 319 321 322 322 323 323 324 323 324 324 321 322 323 323 322 321 321 320 320 320 317 314 314 317 321 323 324 324 324 325 324
291 287 290 289 289 288 288 290 292 293 290 289 292 294 292 292 292 290 289 285 285 286 281 283 286 281 277 281 285 285 286 286 287 289 291 292 293 294 295 296 296 296 297 297 297 297 299 300 301 306 309 313 314 315 316 317 319 321 321 321 322 323 322 322 322 321 321 322 323 322 322 320 319 319 315 308 309 314 314 319 320 322 323 323 323 323
290 291 291 292 290 288 291 292 292 293 289 291 293 295 295 293 291 290 286 286 286 282 279 281 282 277 277 279 281 283 284 285 287 291 292 293 294 295 295 295 296 296 296 296 297 297 298 300 301 304 306 308 312 313 313 313 314 317 318 318 318 320 321 321 320 320 321 321 320 321 320 320 318 313 308 310 312 313 313 316 315 319 320 321 321 321
291 292 297 290 290 292 291 292 293 292 293 295 294 292 290 287 286 284 284 283 284 278 279 280 282 281 277 281 285 285 285 287 291 290 289 290 292 293 295 296 297 296 296 296 296 296 296 296 298 298 302 304 303 302 304 309 311 312 314 316 316 319 319 318 319 319 320 321 320 321 320 320 318 314 312 311 311 312 312 315 314 316 318 318 320 319
288 292 291 291 290 290 292 290 292 293 294 295 291 287 289 287 284 284 282 284 279 276 278 279 281 280 276 277 281 285 285 285 288 289 293 293 292 293 294 295 295 295 295 295 295 295 295 295 296 295 298 299 299 299 301 304 307 310 312 314 315 316 316 317 318 318 319 320 320 320 319 319 318 315 313 314 314 313 314 315 313 312 313 315 317 318
286 287 289 291 293 292 290 291 290 293 293 292 289 289 285 279 281 278 280 278 277 277 280 280 281 281 281 282 284 283 286 288 286 290 292 291 291 290 291 293 293 293 293 294 295 295 295 297 297 297 297 297 298 300 301 303 306 309 310 312 314 315 315 316 317 317 318 318 319 319 319 318 317 315 314 315 315 313 314 313 312 312 314 314 315 316
283 284 288 289 291 292 292 288 285 285 289 289 288 285 283 276 275 275 272 273 273 277 280 281 282 280 281 283 291 291 294 294 291 289 289 290 291 292 292 294 294 294 294 295 295 294 296 297 297 297 297 298 299 299 300 301 304 307 310 311 313 315 315 315 315 317 317 317 318 318 318 318 315 314 314 314 314 312 313 312 313 313 314 313 315 314
281 281 287 288 286 291 291 290 291 288 288 289 288 289 284 281 275 273 272 273 275 278 278 281 280 276 279 283 284 291 294 294 290 288 287 288 290 291 293 294 293 294 294 295 295 295 297 298 297 298 298 298 299 300 300 301 302 305 308 310 311 313 313 313 315 316 316 316 316 316 316 316 314 315 314 314 312 312 311 310 311 312 311 312 312 313
285 283 287 290 289 290 291 291 292 292 290 288 288 289 284 284 283 279 279 277 275 275 277 278 279 280 283 283 287 288 289 290 290 288 288 291 292 292 294 295 296 296 296 295 295 297 296 296 295 295 296 297 298 298 299 300 301 303 306 308 311 312 312 312 312 314 315 315 314 313 314 315 313 311 312 310 308 310 311 310 311 310 309 310 309 308
284 283 286 288 290 289 290 290 292 292 284 287 286 285 285 289 286 279 279 281 278 277 276 278 280 280 282 288 292 289 288 290 288 289 288 290 289 288 292 294 295 295 295 295 296 297 298 296 295 297 297 298 298 299 300 301 302 303 304 306 307 308 307 309 310 313 313 313 313 313 314 313 312 312 312 312 310 310 308 309 309 309 307 305 307 308
284 282 286 286 288 289 289 289 291 288 289 287 282 286 290 291 288 284 277 276 276 275 275 275 278 278 280 279 285 286 288 290 290 290 290 289 288 289 292 293 294 295 295 294 294 295 296 296 297 296 296 297 299 300 300 301 301 303 304 305 307 307 308 308 310 311 312 312 312 312 312 312 312 312 311 311 309 307 307 306 306 304 304 305 305 305
289 281 285 286 286 288 289 290 290 290 291 289 287 292 288 282 281 281 279 272 271 271 269 274 276 277 278 282 281 285 286 290 292 291 289 291 290 291 292 292 291 291 291 292 293 294 295 296 297 296 297 297 297 298 299 300 301 300 300 301 305 307 307 307 308 309 310 311 312 312 311 310 310 310 310 307 307 306 308 307 306 306 305 301 301 301
288 282 282 286 286 288 287 287 284 285 289 290 290 287 287 286 283 280 281 278 278 273 271 274 277 278 281 283 283 287 286 288 289 287 288 291 292 292 292 293 293 292 292 293 293 293 294 295 296 297 297 297 298 298 298 299 299 301 301 301 301 302 302 304 306 307 309 309 310 308 306 306 309 308 308 307 307 306 307 307 306 304 301 302 301 302
285 284 278 284 287 287 284 284 285 287 285 285 285 284 286 284 285 284 283 281 279 271 269 269 272 275 280 285 287 291 291 291 290 291 291 291 291 291 292 293 292 292 293 293 293 294 295 296 295 294 294 295 295 296 297 299 301 301 301 302 302 304 304 305 306 307 309 308 308 306 306 306 305 305 305 305 306 306 305 305 304 304 302 299 299 299
286 283 281 282 283 282 281 283 285 288 291 289 288 286 287 283 280 281 280 281 278 278 274 271 276 277 283 286 291 291 293 292 292 290 291 291 291 291 291 291 291 293 293 293 294 294 294 292 292 291 292 293 293 294 296 298 299 299 301 303 303 304 306 306 306 306 307 306 307 306 306 304 302 304 304 305 304 305 303 301 301 300 298 299 296 297
285 282 283 278 281 284 285 289 286 286 285 286 285 287 288 286 283 280 278 278 279 279 278 277 274 282 287 287 290 292 291 292 290 288 290 291 290 290 291 291 290 292 294 295 295 295 294 292 293 293 293 294 295 296 294 296 301 302 303 303 304 305 305 305 305 305 305 306 307 307 305 304 303 304 303 305 302 302 299 297 295 296 298 297 294 292
290 281 279 278 283 284 284 284 285 285 288 287 286 283 285 284 282 281 280 281 283 278 277 277 275 281 288 286 289 289 289 285 286 287 290 290 289 290 290 292 294 294 294 294 293 294 294 293 291 291 292 293 294 293 297 299 301 302 302 303 303 303 303 303 303 303 304 305 306 306 304 304 303 303 303 304 301 300 297 295 295 294 296 295 294 294
284 279 283 274 274 279 281 283 284 284 286 282 282 283 284 284 282 281 280 280 279 280 280 279 277 279 289 286 286 286 287 288 289 288 287 290 290 290 291 291 292 293 294 294 294 294 293 292 292 295 295 295 295 295 296 298 300 301 301 301 302 302 300 300 299 301 302 303 304 303 304 302 301 302 301 301 298 297 295 294 294 293 295 294 293 293
285 282 283 276 275 274 274 276 279 282 282 282 281 282 285 287 283 284 280 279 278 279 280 278 282 284 285 286 289 288 287 288 287 288 288 289 289 290 290 291 291 293 293 292 292 293 293 295 293 291 292 295 295 296 297 298 299 299 299 299 296 298 296 296 295 300 302 302 303 302 302 302 300 300 299 298 296 295 294 293 293 293 292 295 295 292
281 284 287 285 283 281 283 282 284 286 285 284 285 285 285 286 285 284 280 278 281 278 279 284 285 284 284 287 287 287 285 288 290 288 288 289 288 289 289 290 291 292 292 293 293 292 290 290 293 294 292 294 293 293 295 297 298 296 295 293 292 294 296 294 297 299 301 301 303 302 301 301 300 298 296 295 293 292 292 293 292 293 293 291 293 292
282 284 286 286 286 287 284 283 286 290 286 287 285 285 286 286 285 284 283 283 282 279 280 285 284 282 284 284 286 288 287 286 287 287 287 287 288 289 289 289 292 291 292 292 293 293 295 295 293 292 292 291 293 292 293 294 294 295 294 295 292 293 295 295 296 297 299 300 301 301 299 296 294 295 295 292 291 291 291 291 291 291 290 290 291 291
287 286 285 284 284 283 283 285 287 288 288 288 288 288 286 287 285 285 285 287 283 284 282 284 285 284 285 287 288 288 289 290 290 290 288 288 288 288 288 291 292 291 292 293 295 296 296 296 294 292 291 291 290 291 292 292 291 289 289 290 291 292 295 294 296 296 297 297 298 298 295 293 292 291 291 290 291 290 290 290 289 289 289 289 288 289
289 279 281 285 282 283 283 284 287 287 285 286 287 288 288 287 287 287 288 288 286 286 288 284 283 285 288 289 289 290 290 290 289 288 289 289 289 289 289 291 292 292 291 293 295 296 296 296 293 292 291 290 291 292 292 292 292 292 293 293 292 293 293 293 295 296 295 295 294 292 291 291 290 290 290 290 291 290 289 289 288 288 288 288 288 287
288 280 286 281 278 280 282 283 285 285 285 284 285 287 288 288 288 288 288 288 287 287 288 286 285 286 290 291 291 291 289 286 288 290 290 291 289 289 289 289 291 293 293 293 293 294 295 295 293 291 290 292 292 293 293 294 293 292 292 293 293 293 292 292 293 293 293 294 291 290 290 290 290 289 290 290 289 288 289 288 288 288 288 287 287 287
286 277 281 280 278 275 280 281 280 280 281 282 284 284 285 286 285 287 285 287 285 285 286 285 284 286 287 291 290 290 288 288 290 290 290 290 289 289 289 290 291 292 293 294 293 292 292 293 294 294 294 294 294 293 293 293 293 292 293 293 293 291 289 290 292 292 292 290 289 289 290 290 289 290 289 289 289 288 288 288 288 288 287 287 286 286
284 281 279 277 278 275 278 282 280 278 279 277 281 285 287 287 288 287 289 289 289 290 285 284 286 288 288 289 289 287 288 290 291 291 290 289 288 289 290 291 291 291 292 293 292 293 293 294 295 295 295 295 295 294 294 294 292 292 293 292 291 288 289 291 291 291 290 289 289 289 289 289 289 290 289 289 288 288 287 287 288 287 287 287 287 286
287 286 282 283 279 274 276 281 280 279 274 279 289 288 289 287 287 285 286 288 289 289 289 291 291 287 286 287 289 288 288 290 292 293 292 292 290 288 289 290 291 292 291 291 291 292 293 293 293 293 294 294 292 292 290 291 292 292 290 289 288 289 290 290 289 290 289 288 289 289 289 289 289 289 288 287 287 287 287 287 287 287 287 287 286 287
285 283 279 277 277 272 272 278 279 274 277 286 283 291 291 291 290 289 289 290 290 290 290 290 291 288 287 287 288 289 290 291 290 290 291 288 289 290 292 292 292 292 292 292 291 291 292 292 291 290 288 289 288 288 289 289 290 288 288 288 288 288 289 289 289 288 288 288 288 288 288 288 288 288 287 287 287 287 287 287 287 286 286 286 287 286
283 283 276 273 271 272 272 277 272 276 281 282 281 284 289 291 291 288 287 289 290 290 290 290 291 292 290 288 286 286 287 287 286 285 287 288 289 292 290 291 292 292 292 293 292 293 291 290 291 290 288 287 287 288 290 291 288 288 288 287 289 288 289 289 289 288 287 288 288 288 288 288 288 287 287 286 286 287 287 286 286 286 286 285 285 284
288 284 283 277 274 274 273 278 278 279 281 283 284 282 286 285 284 286 283 287 290 291 290 291 292 292 291 289 287 287 285 288 288 291 287 286 288 289 293 293 294 294 294 293 290 289 287 288 289 289 286 285 288 288 289 288 288 288 287 287 287 288 288 288 288 288 288 288 288 288 288 288 288 287 287 286 286 286 286 286 286 285 285 285 284 284
286 286 281 283 274 273 274 271 271 273 275 282 284 284 290 289 291 291 288 287 291 292 293 292 291 292 290 288 286 285 287 289 288 290 292 291 290 290 290 292 292 290 289 289 287 287 287 285 286 285 286 286 286 287 287 287 288 287 287 287 287 288 287 288 289 289 288 288 288 287 287 288 287 287 286 286 286 286 286 285 285 284 285 285 283 283
282 282 283 285 276 273 272 275 274 274 279 281 283 286 289 290 290 288 283 283 290 291 292 292 292 290 289 289 287 287 287 286 288 291 290 294 294 291 291 291 291 288 285 285 288 290 286 285 284 284 284 285 287 285 285 287 287 288 288 287 287 287 288 288 288 287 287 287 286 286 286 286 286 286 286 286 286 286 285 284 284 283 283 283 283 282
281 277 279 277 272 276 276 273 276 273 280 280 283 284 289 289 292 289 274 280 285 290 291 291 291 291 289 290 288 288 289 287 289 290 291 293 294 292 291 291 288 286 286 284 282 282 283 283 285 285 285 286 286 283 284 284 287 286 287 285 284 286 286 286 284 284 284 285 285 285 285 285 286 286 286 285 284 283 283 282 282 282 282 282 282 281
276 276 277 280 277 276 281 271 270 277 282 280 281 284 287 292 290 281 277 284 285 289 289 291 291 292 291 290 288 288 290 294 293 288 290 288 289 287 282 282 283 283 284 283 283 284 283 282 283 283 282 282 282 283 283 285 286 285 283 284 284 285 284 283 283 283 283 283 284 284 283 284 284 284 283 283 282 281 280 281 281 281 281 281 281 281
274 276 271 274 276 278 278 277 276 278 283 286 281 287 289 289 278 280 285 283 284 284 284 289 290 289 288 289 288 291 293 292 286 287 288 286 287 284 283 281 281 281 280 281 281 282 282 281 281 281 281 281 282 283 284 285 286 284 283 284 284 283 280 281 281 281 281 282 282 281 281 281 281 281 281 280 280 280 279 278 280 281 281 281 281 281
281 279 276 278 273 270 269 274 271 274 281 288 287 285 286 285 284 283 281 283 282 282 284 284 288 287 289 289 289 291 292 288 287 287 287 285 284 285 283 283 284 284 284 282 282 281 282 283 281 279 279 280 280 282 283 285 284 282 282 284 281 279 280 280 281 281 280 280 279 279 278 278 279 279 279 279 279 279 279 278 279 280 280 281 281 281
285 280 274 279 281 277 278 275 278 284 286 289 290 287 287 288 282 284 286 286 283 280 284 287 285 286 288 291 289 288 288 287 285 284 284 285 283 283 281 281 281 281 280 280 281 281 279 281 279 279 277 277 279 280 281 285 283 282 282 281 277 278 278 279 279 279 278 277 276 276 276 276 277 278 278 278 279 279 279 279 279 280 281 282 282 281
285 285 285 282 281 278 280 283 284 282 287 289 290 288 293 293 284 285 288 289 288 285 282 284 288 284 286 288 288 288 287 286 288 286 288 290 286 283 283 282 282 283 282 282 281 278 279 281 279 277 275 274 274 276 278 279 283 279 280 276 276 277 278 277 277 277 276 275 275 274 274 275 275 276 277 278 279 279 279 279 280 280 280 281 281 281
286 285 282 284 284 287 287 288 285 282 283 287 285 284 291 293 284 283 286 289 286 287 285 287 285 286 285 285 286 283 286 286 286 284 285 285 284 281 281 280 279 279 278 278 276 277 276 277 276 276 275 273 271 271 272 277 278 280 276 275 275 276 276 276 276 275 274 273 273 273 274 274 273 274 275 275 276 279 279 280 280 280 280 280 281 281
281 282 283 282 281 284 282 289 285 284 284 285 289 286 285 288 287 284 284 287 289 284 285 282 283 286 286 285 287 287 286 282 284 284 283 283 283 282 282 282 281 280 280 279 279 277 276 276 276 274 273 273 270 269 270 270 272 274 274 274 275 275 275 275 275 274 273 272 272 272 274 274 274 274 274 274 275 276 277 278 279 280 280 280 281 281
282 283 287 282 282 285 287 285 287 287 286 287 287 287 288 287 285 283 283 282 283 283 283 282 281 283 283 284 286 286 283 282 283 283 283 284 285 282 282 282 281 278 277 277 276 275 275 276 277 274 273 272 269 269 268 269 270 271 272 272 273 273 274 274 274 273 272 271 272 272 273 274 274 275 275 275 276 277 277 276 277 279 279 280 280 280
284 287 283 284 285 287 285 280 282 285 287 286 284 284 286 289 289 285 282 282 284 285 283 281 281 283 285 286 284 284 284 282 283 283 284 283 282 282 282 280 279 278 277 276 274 274 277 275 274 273 271 269 268 267 267 267 267 268 271 272 271 273 273 273 272 271 270 271 271 272 272 273 274 274 275 274 274 273 273 275 277 277 276 276 278 280
285 284 283 283 283 284 285 285 284 282 281 286 286 288 289 283 286 285 282 283 283 284 283 285 283 281 281 281 283 285 288 284 281 281 282 283 283 282 280 279 277 276 274 274 274 273 272 272 272 271 269 268 267 266 266 266 266 266 268 269 271 273 273 272 271 270 270 271 271 271 272 272 272 273 274 275 275 275 276 279 280 279 278 279 282 282
288 286 285 285 285 285 286 285 289 291 287 285 288 286 283 282 285 287 288 287 284 284 285 286 285 285 286 284 280 283 282 284 282 281 281 280 281 280 281 279 278 276 276 274 274 272 272 271 270 269 268 267 266 265 265 265 265 265 266 269 270 272 272 272 272 271 270 271 271 272 272 272 272 273 273 274 275 276 276 276 279 281 282 281 281 282
Wind_Speed
6 9 11 14 12 12 11 11 6 8 5 7 8 5 7 7 6 4 4 3 2 3 9 10 11 12 13 11 6 5 2 3 5 7 8 7 8 9 9 11 12 12 15 11 10 10 13 14 13 12 11 11 11 10 11 11 12 13 13 12 13 11 11 10 10 10 10 10 8 7 10 11 9 8 8 8 7 7 7 8 8 8 7 7 7 7
9 9 10 5 6 9 10 10 8 11 7 6 6 6 8 4 7 4 4 0 2 5 6 6 6 12 12 7 5 1 3 7 9 10 9 9 8 9 11 13 13 15 6 2 5 8 8 10 10 9 9 9 12 12 11 12 14 13 13 14 13 10 11 12 13 11 11 11 12 11 11 9 8 8 9 9 8 9 7 8 8 8 8 8 8 7
7 11 9 7 6 11 11 11 10 11 8 8 7 6 5 8 5 6 2 2 1 2 8 0 7 12 12 11 5 4 7 7 11 11 13 12 10 10 11 12 12 7 9 8 10 10 10 11 11 11 11 11 14 14 15 15 14 14 13 12 12 11 12 12 12 11 12 10 9 10 7 9 5 5 7 7 7 7 8 8 8 8 8 8 8 7
7 8 13 13 10 12 13 12 12 10 9 8 8 6 8 4 4 4 3 2 0 3 2 2 5 9 8 6 7 6 7 7 9 10 10 9 13 13 15 15 13 13 13 12 12 13 12 11 11 11 12 13 11 11 11 12 15 13 12 12 12 12 12 12 12 13 12 10 6 5 4 5 7 6 5 5 5 7 8 9 8 8 8 8 7 7
8 6 14 17 15 14 14 13 12 10 10 9 8 7 7 3 5 4 4 2 0 0 3 2 2 7 6 7 6 6 9 8 8 4 6 8 8 9 4 4 9 15 15 14 11 10 9 10 13 16 15 11 12 13 15 15 14 12 14 14 14 13 13 12 12 13 9 6 5 4 3 4 3 2 4 5 7 8 8 7 9 9 7 7 7 7
9 7 13 16 14 13 11 12 12 9 8 8 9 10 10 11 6 4 1 6 1 3 3 3 1 6 5 6 11 10 2 6 8 7 9 11 11 8 8 12 11 10 9 13 15 15 14 14 12 11 11 13 14 15 15 13 15 13 13 14 13 11 11 12 12 13 10 10 11 9 8 8 7 8 7 12 15 11 10 12 7 6 8 7 7 7
9 6 16 16 15 13 11 8 8 10 7 7 6 9 12 8 4 5 4 3 1 4 3 1 8 6 5 4 8 9 6 11 4 5 11 9 10 9 12 14 13 13 12 8 7 7 8 11 10 12 13 14 14 15 11 11 13 13 13 14 14 13 11 12 11 11 10 10 10 13 14 12 12 12 10 8 4 7 6 4 6 6 6 7 8 7
5 9 13 14 13 13 11 11 8 12 9 6 5 3 5 4 4 7 7 6 2 1 1 2 3 4 6 8 4 3 4 9 10 8 10 9 10 11 12 14 12 11 11 11 13 12 11 11 14 16 17 15 17 14 11 12 11 14 14 13 14 12 12 11 10 11 12 13 12 12 12 12 11 12 12 7 5 4 5 6 7 6 6 7 7 7
11 8 14 14 12 11 13 8 6 11 8 5 6 6 7 8 7 7 7 5 0 1 4 1 1 1 5 7 4 1 1 6 10 11 12 12 13 13 13 13 12 13 13 12 12 12 13 13 13 13 13 15 12 9 11 12 12 12 12 12 11 12 10 10 11 12 12 13 13 13 12 11 10 9 6 4 4 6 6 8 6 7 7 6 6 6
2 12 16 17 13 12 9 11 9 12 8 9 3 3 2 4 4 3 4 5 0 1 6 4 3 3 7 6 5 1 2 6 8 11 13 14 16 15 13 13 14 11 9 9 11 10 10 11 12 12 10 7 10 9 8 7 6 8 8 10 11 12 10 10 11 12 13 12 11 11 12 13 11 7 4 5 6 6 6 8 8 7 7 6 6 6
1 5 1 6 11 8 10 11 12 10 6 3 9 3 2 4 2 3 4 2 2 3 6 6 4 3 4 5 7 6 6 8 9 6 5 6 8 10 12 13 12 11 10 9 9 8 8 7 7 5 9 8 5 5 5 6 7 7 8 9 11 13 10 9 11 12 13 12 11 13 13 14 13 10 8 7 7 6 6 8 8 7 7 6 6 5
2 1 4 3 3 2 5 4 2 4 5 8 3 4 4 0 4 2 1 3 3 6 5 2 3 2 7 4 6 9 5 3 5 7 10 9 8 10 9 10 10 8 8 8 7 9 7 5 5 5 8 7 7 6 7 6 6 8 8 9 11 10 11 9 10 11 12 12 12 11 12 13 12 11 10 12 11 10 11 9 8 5 5 5 5 6
1 3 2 1 3 7 5 9 2 1 3 5 6 7 7 2 2 4 0 5 6 6 1 0 3 1 9 7 8 6 8 7 7 10 10 8 7 7 8 9 7 6 6 8 9 8 6 8 8 8 8 6 7 10 10 10 9 9 9 11 13 13 11 11 11 13 13 12 13 12 12 12 10 10 11 11 10 9 9 8 7 8 8 6 6 6
4 1 1 3 2 4 6 13 5 5 5 8 9 8 8 4 5 7 3 1 3 6 5 1 0 4 3 7 13 16 17 16 8 6 8 7 7 7 7 6 5 5 7 8 7 7 7 8 7 7 8 9 9 9 11 10 10 10 10 12 14 15 12 11 11 13 13 13 12 11 11 10 9 10 10 9 10 9 8 8 9 9 8 8 9 8
8 5 9 8 4 3 5 8 11 6 7 9 4 9 6 4 4 5 3 7 8 8 1 3 2 6 5 6 4 11 11 11 3 4 6 7 7 5 4 4 3 3 5 5 7 8 9 10 9 9 9 9 9 10 11 10 11 10 11 11 14 13 12 12 14 12 13 12 11 10 9 9 8 10 9 9 7 8 8 7 7 7 6 7 7 8
17 3 3 1 1 2 11 2 2 8 7 5 4 5 7 10 6 4 6 4 4 2 1 2 6 5 7 3 7 6 9 9 6 4 2 7 8 4 3 4 5 5 5 4 5 6 7 6 5 5 5 5 5 6 5 7 7 9 11 11 13 13 11 11 10 10 11 11 8 8 9 10 10 8 8 6 5 6 7 8 8 7 7 6 6 5
3 6 1 5 2 0 4 2 2 6 11 4 5 10 5 4 7 3 3 1 3 3 7 2 4 5 8 9 11 4 3 7 4 5 4 6 5 2 5 5 6 6 5 5 6 7 7 4 4 5 5 5 5 6 8 8 8 9 8 8 9 8 6 8 10 10 9 9 9 10 10 9 9 10 10 10 9 8 6 7 6 7 7 5 6 6
11 3 1 3 4 1 0 1 0 2 2 7 6 8 2 2 4 5 5 1 1 6 6 2 7 3 1 6 4 5 5 10 7 7 6 5 3 5 7 7 7 8 8 5 6 6 5 4 5 4 4 5 6 7 6 7 6 6 7 8 9 8 10 9 9 9 8 9 10 10 10 9 10 9 8 7 8 6 7 5 5 5 6 7 6 6
8 4 1 0 0 4 1 1 2 1 0 6 8 6 10 6 8 2 3 4 4 5 4 2 2 4 6 6 2 3 5 8 10 7 3 7 7 8 8 9 7 7 6 7 8 8 7 6 5 5 6 6 6 5 6 5 5 4 4 4 5 8 7 7 6 6 6 8 9 9 9 9 8 6 7 5 6 6 7 8 7 7 7 5 5 5
2 7 1 1 2 1 1 3 12 4 2 0 2 1 1 2 4 4 7 3 5 6 2 7 1 7 6 7 7 8 7 6 5 5 6 9 8 8 8 9 9 8 9 9 8 7 6 6 6 6 7 7 7 6 5 5 4 5 5 5 5 4 4 5 7 7 9 8 7 7 5 5 6 7 7 7 8 8 8 8 7 6 5 7 5 6
3 3 6 1 1 2 4 3 9 10 9 2 3 6 2 0 1 4 1 5 5 3 3 2 4 6 7 8 8 11 10 9 9 10 8 8 7 8 8 8 8 8 8 8 7 6 6 6 5 5 5 5 3 4 4 5 6 6 5 5 6 8 7 8 9 8 8 7 6 6 7 6 5 6 6 6 7 8 7 7 7 6 6 5 6 7
4 2 9 3 2 6 5 2 3 9 11 11 11 12 13 9 5 9 11 3 2 3 4 3 12 5 8 6 12 12 12 9 9 6 7 7 7 6 7 6 6 7 7 6 6 5 5 5 4 3 1 1 3 3 5 4 4 5 6 7 7 7 8 9 8 8 6 5 6 6 6 6 5 6 6 7 7 7 7 6 6 7 7 8 6 7
6 3 9 5 6 8 3 1 1 1 1 2 2 8 6 5 3 6 9 5 1 3 4 4 4 14 9 9 12 13 9 11 7 3 6 7 6 5 5 6 5 6 5 4 4 4 4 4 4 5 5 5 5 6 5 5 7 8 8 8 8 9 9 7 7 5 5 6 6 6 5 6 6 7 7 9 7 7 7 6 5 6 8 7 7 5
9 5 6 2 1 2 5 2 1 0 0 3 3 0 2 7 4 3 3 6 9 3 2 2 6 5 9 8 10 9 9 5 2 5 7 6 4 3 4 3 3 4 5 4 3 2 2 1 1 3 4 4 4 5 6 6 6 6 6 7 7 9 7 6 5 6 6 5 6 5 5 6 6 8 8 9 7 7 6 6 6 6 7 7 6 7
5 2 9 5 3 2 5 4 2 0 1 2 1 2 2 2 3 2 3 1 3 8 8 7 18 2 5 2 6 4 3 5 5 3 4 5 4 4 4 3 2 2 2 2 2 2 1 2 4 5 4 4 5 4 5 6 7 7 7 6 7 6 5 5 5 6 5 6 6 6 7 6 6 7 7 7 6 7 7 7 7 6 7 7 6 6
3 5 8 8 10 11 11 15 18 15 9 2 0 1 4 8 5 4 3 3 6 5 8 7 15 1 1 2 2 2 1 3 4 5 5 6 4 4 4 4 3 1 3 2 2 1 5 6 5 4 5 5 5 6 6 6 7 7 6 6 5 5 5 5 4 5 6 6 7 7 8 8 7 7 7 7 7 7 7 7 6 6 5 7 8 6
3 4 8 12 14 15 16 2 5 14 6 11 9 9 7 5 6 3 3 4 15 4 9 19 12 1 0 1 2 5 4 7 6 6 7 6 4 4 4 4 3 3 3 4 4 5 3 4 6 6 5 5 5 6 7 7 7 5 4 4 4 4 5 6 7 7 8 8 8 8 9 8 8 6 6 6 6 5 5 6 6 7 7 5 7 7
5 5 12 13 14 8 3 5 7 17 16 14 10 11 9 8 7 8 10 18 7 7 16 9 8 5 5 4 7 8 7 6 5 5 5 5 5 6 4 2 2 3 4 3 4 5 7 7 5 5 6 6 7 7 6 6 5 5 6 6 5 6 7 7 8 8 8 9 9 8 8 7 5 6 6 5 5 5 5 5 5 5 5 6 7 6
8 12 7 6 2 1 2 8 11 10 13 13 17 15 13 12 10 15 20 16 9 14 19 6 11 9 6 9 10 10 9 9 10 6 4 2 1 0 1 2 3 4 5 5 7 7 6 7 5 6 7 9 7 8 8 7 6 4 4 4 5 6 8 8 8 8 8 8 9 8 7 6 5 5 6 6 6 6 6 5 5 5 6 5 5 5
7 4 4 7 3 1 1 7 10 12 5 5 13 15 17 15 19 24 24 18 16 17 14 5 8 12 10 11 9 11 7 2 0 1 1 0 4 2 1 3 5 5 6 9 10 8 6 6 5 7 7 8 9 9 8 8 7 7 7 7 6 7 6 7 7 8 7 8 7 6 6 6 6 6 6 7 7 7 6 6 6 6 6 6 5 5
6 4 6 5 3 3 1 2 1 4 8 8 10 13 16 19 23 26 21 15 14 16 16 7 11 17 8 8 8 6 1 3 1 0 4 7 3 2 4 4 6 9 10 9 7 7 7 7 7 7 8 10 10 11 10 9 7 6 7 7 8 7 6 6 7 7 8 8 5 6 6 7 7 7 8 7 7 7 7 7 7 7 7 6 6 6
3 1 1 5 7 4 1 5 3 5 1 5 9 13 18 22 23 19 13 7 7 19 14 9 13 20 3 11 6 7 3 3 6 8 7 7 6 4 5 7 7 8 9 9 8 6 8 10 10 9 11 12 11 9 8 8 8 8 10 8 8 6 5 6 7 8 7 6 7 7 8 7 8 8 8 8 8 8 7 7 8 8 8 7 7 7
5 6 6 5 7 6 1 9 7 5 3 3 10 24 27 17 11 5 11 13 21 19 9 13 26 2 5 6 9 3 7 9 10 9 8 6 5 6 8 9 9 7 8 9 8 10 11 12 13 12 11 9 10 10 11 9 8 11 10 9 7 7 8 8 8 8 7 7 8 8 7 7 9 8 9 8 8 7 7 8 8 8 8 8 7 7
10 12 8 8 8 5 5 9 5 6 6 17 14 4 12 17 17 12 13 18 17 9 16 17 15 6 7 6 9 10 9 10 11 11 6 5 6 5 6 7 9 9 8 8 9 10 12 9 8 9 10 8 7 7 6 7 10 8 5 6 6 8 7 8 7 7 8 8 8 9 9 8 8 9 8 8 8 8 8 8 8 8 7 7 7 8
9 5 4 1 5 4 3 8 7 9 17 11 3 12 20 18 17 23 25 19 18 18 20 18 16 5 7 6 7 9 11 5 3 4 5 5 5 8 10 11 11 10 11 11 11 11 11 10 7 6 5 5 5 5 7 7 6 6 6 7 8 6 8 6 7 7 7 8 8 8 9 10 9 9 8 8 9 8 8 8 7 8 8 8 8 9
9 9 4 3 5 4 3 8 7 18 7 4 4 1 7 14 19 13 16 17 14 14 17 21 24 14 6 5 3 4 6 5 3 4 7 7 8 9 8 9 11 11 11 12 12 13 9 7 9 8 7 6 6 6 7 8 6 7 7 6 8 8 8 8 8 8 7 8 9 9 9 10 10 9 8 8 9 9 9 9 9 10 8 7 7 6
14 7 8 4 0 7 5 10 11 7 9 8 8 5 9 10 7 13 12 17 14 14 17 22 23 12 7 5 5 4 2 0 2 7 5 6 9 9 11 11 11 14 14 11 5 6 4 5 7 7 4 4 6 6 7 6 7 7 7 7 6 7 7 8 9 9 10 10 10 10 10 10 11 11 11 10 10 10 10 10 9 8 7 9 8 8
6 13 5 10 3 6 7 3 1 6 11 20 5 3 6 6 14 11 10 16 10 18 18 18 19 13 7 5 5 5 2 1 10 10 9 10 10 9 9 10 8 5 2 4 2 1 1 2 1 2 5 5 5 5 5 6 8 8 8 8 7 8 8 9 11 9 9 9 9 8 8 8 9 10 10 10 11 10 8 6 5 7 7 9 10 9
7 5 6 11 4 5 3 8 8 10 18 1 8 9 11 10 11 9 4 16 12 16 15 17 20 7 8 9 7 7 5 7 13 12 7 13 13 8 8 10 10 5 2 1 1 1 1 1 2 3 3 5 6 4 5 7 9 9 9 8 8 8 9 10 8 7 7 6 5 5 6 6 6 7 8 9 8 8 9 8 7 6 6 7 7 8
6 2 4 3 5 7 8 5 11 5 10 2 6 6 11 9 15 11 3 16 1 14 13 12 13 10 11 13 10 11 11 12 17 7 9 12 13 8 9 10 5 3 2 0 1 1 3 2 4 3 3 2 1 2 4 4 5 5 5 5 4 6 7 5 3 4 4 5 5 5 6 5 7 7 8 8 7 7 7 7 8 8 8 7 7 8
3 0 3 11 7 4 8 4 4 9 5 4 5 3 9 14 14 11 19 11 5 9 9 12 17 15 15 13 10 11 13 15 7 4 9 6 1 1 1 1 1 2 4 3 2 2 4 4 4 4 3 2 4 5 5 5 6 5 4 5 5 7 5 4 5 6 6 6 6 6 6 6 6 8 6 6 8 7 7 7 8 8 9 9 8 9
2 4 2 3 8 10 10 8 10 8 8 10 1 11 10 11 8 19 6 2 7 5 2 8 11 7 7 10 9 11 12 10 1 0 2 5 6 2 2 3 3 3 3 1 3 4 5 4 4 4 3 2 5 6 6 7 8 6 6 6 8 5 4 6 6 7 7 7 7 7 7 7 6 7 8 8 9 9 8 5 7 8 9 8 9 11
12 8 7 9 3 5 3 5 1 11 5 13 12 3 4 8 8 4 3 0 2 3 6 3 7 6 10 9 12 13 12 3 4 6 6 6 5 5 5 5 6 6 6 4 2 1 5 5 4 3 3 1 3 4 5 7 7 6 6 8 6 5 6 6 7 7 7 7 7 7 7 7 8 8 7 8 8 10 10 8 8 8 9 10 10 11
9 9 4 7 8 10 11 11 12 8 7 14 19 12 10 9 4 7 6 5 2 4 6 7 6 8 10 10 11 10 9 6 2 4 5 5 4 1 2 1 2 3 3 1 3 5 4 5 4 4 2 2 2 3 5 8 8 7 8 7 5 6 6 7 7 7 8 7 7 7 7 7 7 7 7 9 9 9 10 9 9 9 9 10 11 10
9 14 10 13 4 6 9 13 9 5 12 11 8 6 15 14 5 7 7 8 7 5 5 4 9 6 9 10 8 9 7 7 9 7 9 9 7 6 7 7 7 7 6 6 5 4 4 7 7 5 3 2 2 1 1 3 7 6 7 4 5 6 7 7 7 8 8 8 7 7 6 6 6 7 7 7 9 10 9 9 10 10 7 8 9 9
5 6 3 6 7 8 6 8 2 2 1 6 2 4 11 13 5 5 7 8 6 6 10 8 7 8 8 6 7 3 7 8 7 5 7 6 5 4 2 2 2 1 2 3 3 3 4 4 4 5 4 2 3 3 1 1 4 8 5 5 5 5 7 8 8 8 8 7 6 7 7 9 6 6 6 6 5 7 8 11 10 9 9 8 8 9
4 5 4 5 2 7 10 16 7 5 2 6 9 3 4 2 7 6 5 6 7 7 8 3 5 8 11 10 9 9 8 4 6 5 5 3 5 7 7 7 6 6 7 7 5 6 6 6 6 5 5 4 1 2 3 2 2 3 7 7 5 5 6 7 8 8 7 7 7 6 7 9 8 7 6 5 5 5 6 6 7 9 9 8 9 8
3 3 8 6 6 13 17 5 11 10 8 6 8 5 3 6 4 4 2 3 1 2 3 3 3 3 5 6 8 7 4 5 5 6 5 7 7 6 7 7 6 5 2 2 4 4 5 6 6 6 5 4 1 2 2 4 4 4 5 5 6 6 7 7 7 8 7 7 6 6 6 7 8 9 7 6 6 7 6 5 5 8 9 10 10 10
6 11 7 9 11 12 2 2 2 7 0 3 2 5 5 7 9 5 3 2 4 6 4 3 1 4 7 6 5 5 4 5 5 6 6 5 4 5 6 4 4 4 4 5 4 4 5 5 5 4 4 3 1 1 3 3 3 4 5 5 6 7 9 8 6 7 7 6 6 6 5 6 7 7 8 7 6 5 3 5 6 6 4 2 0 3
8 13 4 5 8 11 14 9 8 5 4 8 9 13 11 5 5 6 4 3 4 5 4 5 3 2 1 2 5 6 7 5 5 5 5 6 6 5 5 5 4 4 4 3 3 3 3 4 5 6 5 4 2 2 3 3 3 3 3 5 6 8 10 9 8 8 7 7 7 6 7 6 6 6 7 8 8 8 7 9 9 5 4 4 6 9
14 12 10 12 13 17 9 8 13 11 7 6 8 5 4 5 8 9 10 9 6 5 7 8 5 1 1 0 1 4 4 5 5 4 4 3 4 4 6 7 8 6 6 5 6 4 5 4 4 5 6 5 3 3 3 3 2 3 3 4 5 7 10 10 9 7 7 7 7 7 8 7 7 6 7 7 8 8 9 8 8 11 11 9 8 9
Wind_Direction
133 150 184 192 187 179 170 183 185 262 269 297 303 305 256 233 262 261 256 255 237 153 210 200 217 232 238 240 220 215 165 213 225 227 225 218 208 209 212 214 219 219 222 216 204 199 203 205 205 204 200 201 199 200 193 192 195 194 189 184 192 192 183 181 183 185 183 187 190 197 198 206 200 201 198 204 205 202 203 197 200 201 202 204 205 206
137 163 204 173 163 161 166 176 189 235 240 262 281 287 277 238 245 238 228 343 233 176 246 219 233 241 243 257 244 204 161 223 213 222 229 223 218 215 211 217 218 222 238 199 212 218 210 209 207 203 203 198 198 206 193 194 197 197 195 192 191 184 187 191 190 187 190 193 194 193 202 196 191 193 199 206 204 205 198 200 202 201 201 204 205 202
182 191 181 163 159 165 179 193 202 219 221 233 239 256 263 263 236 286 267 262 257 161 265 230 215 247 249 247 242 171 204 226 218 207 211 205 213 218 220 223 225 231 233 213 219 212 204 201 200 197 202 206 205 199 198 198 196 200 200 198 190 188 189 196 193 186 196 197 196 193 194 188 187 206 204 208 204 197 200 202 202 200 199 199 203 200
174 218 184 172 181 175 180 194 206 215 224 234 243 244 242 247 156 257 281 157 311 136 258 182 197 265 271 264 256 227 209 240 229 218 227 206 207 212 214 210 210 218 223 217 212 213 209 200 198 198 203 206 202 203 204 203 203 201 202 197 196 194 194 195 196 196 198 194 186 183 157 175 173 187 194 204 202 203 203 207 200 203 198 195 197 195
182 172 173 173 179 185 185 190 201 200 218 235 232 241 252 259 238 175 210 133 178 26 98 82 352 298 254 260 282 259 225 243 256 227 242 251 245 241 273 269 226 216 212 216 215 219 208 202 206 203 204 195 200 204 204 202 202 202 201 199 199 198 197 197 195 196 186 161 154 141 101 125 110 53 166 197 217 206 203 201 203 205 191 192 196 195
205 200 161 171 178 186 186 191 200 183 216 234 242 225 229 237 230 273 204 124 53 284 265 158 324 277 280 250 235 251 252 240 242 222 236 231 236 235 236 232 230 234 227 214 209 207 203 205 211 213 205 201 207 208 208 202 203 200 200 201 202 202 200 201 198 192 177 180 177 167 171 174 188 197 187 202 207 199 195 204 188 183 185 187 191 191
191 183 166 175 173 185 193 196 193 176 197 207 245 211 238 238 177 141 169 97 125 180 279 121 188 264 327 270 234 234 230 242 261 214 238 233 236 228 227 230 226 221 226 233 240 232 211 213 207 211 208 209 209 214 201 202 204 203 202 201 200 200 200 201 197 184 181 185 187 191 195 196 196 202 215 214 200 196 198 167 178 184 182 188 190 194
159 168 176 174 173 178 187 198 201 177 185 228 250 240 247 215 159 182 170 180 200 257 357 50 131 207 283 282 259 282 223 249 258 252 253 243 238 233 230 231 228 224 220 215 217 214 213 207 201 206 209 208 213 206 196 204 202 203 203 197 201 201 201 199 191 185 188 190 193 195 200 200 202 206 213 195 186 163 162 182 189 184 193 193 191 187
152 174 179 178 177 180 197 192 184 175 186 221 233 171 216 204 206 168 166 181 247 150 262 296 252 216 256 267 305 188 243 268 257 247 245 240 235 235 233 233 230 226 221 213 212 214 211 208 212 215 212 215 214 201 202 203 203 203 203 202 201 204 199 197 191 189 194 196 194 196 197 202 211 209 202 162 156 164 169 182 187 190 191 189 189 182
281 176 185 177 176 191 179 188 189 177 174 233 177 128 72 70 62 111 146 145 179 140 248 230 187 199 280 273 323 335 215 252 251 241 238 232 230 228 233 236 231 230 229 226 225 221 215 214 214 211 216 216 214 207 205 206 199 204 201 203 201 206 199 196 194 192 196 198 191 195 198 202 205 195 175 164 173 176 175 179 185 186 185 184 181 181
191 347 142 163 189 178 170 188 186 173 204 131 127 90 49 37 59 37 72 108 89 249 250 236 245 163 280 255 213 193 219 198 232 269 268 253 246 243 237 235 232 228 226 226 229 231 228 231 230 210 211 215 206 205 197 200 197 192 197 200 203 207 199 196 197 192 198 197 195 199 198 201 200 192 176 173 185 180 181 189 187 187 187 181 180 172
16 38 136 226 89 25 145 139 358 193 183 146 160 136 117 321 15 34 337 44 200 257 262 250 207 166 206 291 279 239 263 229 207 229 243 245 238 241 238 238 237 232 227 226 225 234 233 244 234 206 216 207 199 186 200 203 197 197 197 195 206 207 201 198 197 196 200 198 201 202 197 200 199 186 185 190 193 187 189 188 184 179 167 187 176 175
91 170 246 46 252 153 148 156 226 109 184 173 128 145 168 238 109 237 76 227 218 213 229 179 159 333 247 231 249 278 262 271 222 220 236 253 266 260 260 249 236 226 221 215 218 218 211 206 201 203 213 198 194 198 196 197 196 198 197 197 200 209 199 200 196 198 199 199 202 199 198 200 192 189 193 195 194 187 187 183 173 172 183 169 175 186
256 293 277 249 59 228 158 173 175 150 206 171 174 161 176 175 176 203 243 341 324 289 261 203 324 261 248 283 248 251 261 244 237 228 244 241 245 255 259 262 249 226 216 216 211 208 206 202 203 201 197 200 201 201 197 196 196 197 199 200 203 209 197 198 197 199 199 203 201 199 197 194 184 193 194 196 190 186 186 179 182 183 180 180 185 178
169 216 228 158 202 157 181 195 172 161 145 196 132 164 177 138 160 195 191 192 213 205 251 271 96 233 136 241 231 233 252 284 282 226 235 245 247 260 284 284 281 255 226 201 192 196 200 205 199 198 199 198 200 198 197 196 199 192 199 199 206 208 203 197 200 197 200 199 198 196 194 188 185 193 193 196 187 176 179 184 183 188 179 180 181 180
203 171 311 355 294 173 179 231 161 133 152 197 171 91 163 213 129 192 203 174 198 194 244 202 209 189 181 251 280 236 260 274 277 268 273 264 270 287 283 249 238 242 246 236 225 227 230 218 211 213 213 214 209 206 202 202 197 197 204 203 207 207 199 198 196 201 198 197 190 187 188 193 189 190 188 181 176 182 181 179 182 185 185 183 169 174
117 203 339 323 72 136 188 137 181 173 184 204 116 202 211 148 116 101 46 128 92 41 252 164 309 292 304 317 283 293 301 275 292 281 275 269 261 297 262 249 245 244 249 247 235 233 236 226 224 218 215 212 207 203 204 202 197 200 198 200 206 206 193 193 196 196 193 187 183 193 193 187 186 186 186 186 187 183 178 173 179 177 181 173 173 180
156 162 346 96 192 295 179 206 147 31 153 110 194 214 159 107 114 150 208 339 165 202 256 85 205 285 130 255 301 317 275 269 268 258 250 255 256 255 246 238 234 234 234 247 259 258 252 245 238 226 223 218 212 209 209 213 206 204 203 197 197 195 194 197 192 190 185 183 189 191 194 193 190 186 187 182 177 165 161 170 169 162 167 188 184 172
120 88 263 268 228 274 2 123 54 330 6 183 191 181 154 208 225 264 118 217 179 233 264 290 261 260 184 226 344 265 245 248 261 260 232 254 238 233 241 251 248 253 269 259 249 248 246 238 238 225 223 222 220 216 214 209 200 202 205 203 200 200 197 186 182 181 184 186 190 190 190 184 182 182 177 167 155 156 167 174 177 180 179 163 165 159
121 140 299 325 140 260 7 125 195 184 339 86 70 317 332 131 202 151 201 164 136 244 167 284 95 238 204 214 220 253 232 245 245 269 246 244 233 222 228 237 242 241 234 239 240 240 241 240 228 218 214 215 211 208 208 200 187 194 192 179 191 188 176 172 184 185 189 190 182 179 172 179 176 172 168 165 160 170 179 180 177 172 165 174 160 165
155 109 164 245 290 100 189 202 205 155 154 176 140 196 238 12 254 114 108 158 181 183 184 205 280 261 244 215 201 239 246 229 210 235 247 253 238 224 223 225 236 241 244 241 235 231 226 228 229 227 227 225 210 198 187 188 193 194 180 185 183 183 184 190 196 188 194 174 176 161 172 170 163 166 160 158 170 173 181 179 175 170 161 142 167 157
127 159 159 135 104 212 251 241 178 183 185 182 179 193 189 141 137 175 234 47 127 165 226 153 253 247 259 195 200 216 232 253 257 213 236 254 253 232 230 237 228 244 248 244 237 222 220 224 229 235 229 200 171 182 187 195 184 188 190 192 188 190 194 193 193 190 179 173 165 168 167 165 163 160 162 168 174 177 176 172 168 157 149 166 167 162
136 106 105 160 211 187 210 42 204 137 57 208 180 215 186 194 126 181 205 229 17 246 140 179 251 255 205 188 201 207 219 230 237 162 230 247 253 253 249 236 242 234 248 251 246 234 221 210 205 193 185 184 187 190 189 187 193 197 196 192 196 193 202 191 186 174 169 171 172 169 156 155 170 170 174 175 178 176 168 161 153 156 160 161 160 164
81 102 75 330 312 306 302 303 148 148 73 286 264 87 136 202 173 165 172 185 185 205 184 268 248 276 171 186 204 204 222 254 294 201 216 246 262 276 270 285 268 261 260 268 253 250 239 215 176 157 180 188 192 195 199 201 202 202 201 201 194 202 192 179 171 169 168 171 171 162 158 174 177 178 180 181 177 169 163 158 161 164 157 155 152 152
139 265 123 119 55 8 333 336 330 326 145 201 174 201 173 116 79 139 108 118 193 215 184 148 246 165 247 163 187 214 261 256 265 244 207 242 260 258 272 279 292 271 284 276 240 225 190 185 194 205 197 193 199 206 205 205 208 203 206 200 199 196 179 171 161 163 166 161 163 166 174 185 183 184 180 176 165 167 163 166 160 161 154 149 151 150
97 170 133 144 160 176 188 198 208 200 183 202 168 154 171 187 161 144 194 204 207 240 171 208 242 237 329 26 137 172 137 291 253 232 225 225 231 256 272 273 280 269 240 248 256 203 210 214 215 213 210 204 203 202 206 211 211 211 206 205 189 172 163 162 149 158 157 163 167 178 184 187 184 185 178 169 169 169 168 159 158 156 155 155 149 147
141 159 178 176 184 198 207 171 65 107 113 195 200 173 197 186 188 133 103 160 220 170 191 227 220 102 237 187 186 207 191 202 217 227 222 233 250 251 254 262 265 256 247 230 223 229 245 244 226 222 220 217 211 213 212 209 211 209 197 187 172 162 159 162 160 165 168 173 178 181 190 186 186 174 167 167 165 155 154 158 156 154 156 154 146 151
114 166 209 199 202 213 136 171 191 146 179 200 153 192 189 175 172 175 184 225 123 109 243 230 106 176 226 231 221 199 217 227 246 246 247 249 218 197 211 236 300 298 286 283 260 235 227 228 224 218 220 218 221 221 225 220 212 198 185 184 181 170 170 172 169 174 176 175 183 185 183 177 166 163 164 156 148 152 152 144 148 149 140 139 146 157
160 200 199 158 189 210 149 147 165 168 186 179 180 187 183 185 171 201 222 220 150 203 232 121 170 190 216 220 212 210 188 202 209 230 238 235 319 50 142 181 212 232 253 261 249 237 232 233 224 219 218 221 218 219 219 215 215 204 190 184 184 180 187 175 171 176 176 175 182 184 169 160 159 147 143 146 145 146 149 148 144 139 139 139 143 145
155 214 155 159 171 204 113 164 166 168 164 156 188 192 194 181 199 210 221 213 201 228 237 174 208 202 194 210 211 228 222 180 147 121 88 99 250 230 142 206 214 223 230 234 238 236 234 238 229 221 221 225 219 220 216 212 207 198 189 193 193 189 186 161 178 171 176 182 184 167 158 155 149 151 147 148 155 156 151 149 148 146 143 143 144 139
151 227 130 121 104 244 80 122 171 167 150 172 204 195 195 201 210 216 218 216 219 249 248 260 283 264 219 205 219 250 91 89 47 43 206 223 226 161 192 218 226 222 226 232 241 242 235 235 233 226 221 225 220 218 212 206 199 190 197 198 192 192 178 171 169 176 176 184 166 156 153 154 159 152 159 161 150 152 155 155 153 147 142 140 144 145
103 175 35 103 151 253 182 127 129 77 81 169 195 207 210 207 214 220 220 206 199 232 230 251 263 253 123 188 186 213 173 165 215 233 237 242 226 189 197 226 233 236 234 233 231 232 237 235 231 226 225 225 222 216 208 202 194 189 204 194 191 180 154 168 174 175 179 166 156 162 164 164 159 161 162 158 161 161 161 153 154 150 147 146 148 149
148 129 141 134 154 238 247 125 121 98 96 300 250 217 207 206 216 215 225 209 215 218 210 216 237 137 178 172 158 177 180 203 219 224 237 255 234 199 211 219 228 239 238 232 225 223 227 226 224 221 226 226 219 210 211 192 181 201 198 188 184 150 166 178 176 172 169 164 163 167 166 163 167 166 165 168 158 157 157 161 155 151 151 159 155 142
155 155 173 164 181 192 145 138 110 116 201 230 237 164 160 194 203 203 221 221 229 202 225 225 234 114 126 128 146 191 187 207 207 226 214 210 210 211 233 235 231 234 242 242 230 228 233 233 234 229 224 223 222 216 200 187 195 198 177 166 155 169 176 171 174 170 168 164 171 168 167 168 169 171 170 159 154 155 162 165 166 155 149 143 144 147
155 134 137 139 138 152 155 103 138 200 227 242 23 169 181 192 187 204 219 217 220 221 239 250 250 176 156 171 176 185 199 221 266 265 262 225 169 191 204 219 228 229 234 238 239 236 236 233 239 244 241 225 202 181 167 191 189 157 150 159 164 172 165 173 164 172 171 174 175 170 169 168 169 168 166 161 156 159 165 167 157 154 154 153 154 155
146 137 141 58 121 61 95 156 171 222 234 341 282 259 191 180 203 202 237 236 230 225 230 242 243 227 174 198 230 195 180 225 283 250 233 236 194 198 204 218 226 223 230 232 225 232 229 229 231 227 223 211 178 184 183 185 163 156 168 161 168 169 173 168 171 175 171 178 180 180 176 169 166 162 163 163 162 164 167 168 166 156 151 141 132 123
152 120 143 154 199 151 194 183 224 339 328 274 251 211 161 180 136 180 224 246 222 221 219 235 243 231 214 207 182 209 232 60 249 267 271 234 231 218 210 220 218 222 222 239 231 242 223 217 215 218 178 166 178 170 187 158 156 153 150 163 173 167 169 170 180 185 186 186 181 181 177 174 167 166 166 166 166 170 168 163 157 149 144 138 140 140
167 158 200 144 229 128 125 199 332 273 257 245 237 111 155 163 171 174 188 260 213 223 220 231 240 225 196 200 184 193 105 300 277 252 228 245 238 229 231 237 248 262 272 243 250 265 279 246 203 138 149 157 177 183 157 153 154 151 158 171 169 171 176 182 195 190 186 188 182 177 174 173 169 165 164 165 170 166 160 149 137 144 149 146 145 139
29 70 145 165 155 80 131 170 204 208 236 133 139 167 172 155 140 116 111 257 229 200 214 214 236 208 165 199 203 139 138 233 253 247 191 211 231 219 225 237 234 235 239 210 178 187 140 96 119 122 120 144 170 183 157 157 154 155 172 174 176 178 182 198 196 183 183 174 159 159 159 157 157 159 161 165 161 156 153 152 146 134 125 124 121 124
97 41 101 101 147 190 166 175 221 214 244 213 178 181 172 140 118 115 109 250 92 168 205 196 223 205 187 207 173 162 181 223 242 240 194 201 213 210 204 231 228 201 210 58 46 125 127 91 86 83 92 113 91 103 133 138 147 154 160 162 156 181 199 191 157 134 124 130 138 141 144 150 151 153 157 152 134 132 137 132 131 138 130 125 126 128
119 55 136 195 174 169 166 242 316 279 254 203 222 174 136 141 126 141 207 227 193 173 188 184 205 204 194 199 163 192 216 222 239 195 197 208 197 236 51 30 159 184 170 137 111 114 95 66 89 119 130 133 129 129 128 131 128 138 139 148 160 199 188 155 136 135 135 132 133 138 140 139 147 143 134 135 137 131 130 139 139 135 133 132 130 127
192 125 328 94 173 179 193 191 229 258 236 176 277 150 165 117 194 202 211 183 149 210 231 185 203 203 175 184 182 213 226 224 131 4 205 214 191 166 159 159 126 78 56 106 119 122 108 101 98 97 82 111 140 147 149 147 150 154 157 161 190 184 143 134 134 131 133 138 140 142 142 140 138 138 139 137 135 137 134 130 132 135 134 134 135 133
175 150 186 187 179 54 71 209 303 255 258 137 118 87 287 182 224 190 168 50 198 184 161 190 184 202 167 199 203 210 232 205 173 202 211 220 203 193 181 165 169 159 154 136 123 164 134 122 119 108 114 131 143 151 158 149 152 160 162 181 182 151 145 138 138 136 135 135 137 140 140 139 140 139 138 142 144 140 138 140 138 140 141 140 137 135
176 164 196 211 178 168 179 194 208 220 113 164 140 178 200 206 196 165 126 163 221 174 179 171 220 192 190 186 201 219 231 224 265 242 248 258 234 173 178 180 131 134 143 153 159 158 126 117 124 122 82 68 136 159 167 159 160 166 172 185 153 144 135 134 132 130 129 132 133 132 135 138 136 136 140 143 142 140 140 144 145 145 149 148 141 139
205 197 176 184 190 147 198 214 228 206 167 189 170 163 183 202 155 188 150 165 170 236 206 159 200 198 194 194 193 193 208 214 215 196 188 217 202 188 188 193 185 180 176 163 164 159 150 149 153 137 98 30 27 21 162 175 157 164 173 168 147 145 141 134 132 131 133 137 137 134 133 126 131 137 139 146 146 143 144 144 149 145 154 145 142 141
207 193 110 101 213 229 263 230 126 85 181 211 284 207 184 194 191 167 175 163 233 186 168 185 199 187 194 187 153 198 207 208 199 203 219 227 196 200 172 153 177 171 147 123 123 135 127 107 107 122 116 55 13 11 5 116 157 166 175 146 150 140 138 137 133 132 133 131 130 133 134 125 119 122 130 138 145 148 153 153 155 147 148 146 146 150
225 155 123 182 230 162 242 226 153 190 170 208 223 238 273 249 182 177 205 210 194 179 190 230 188 190 181 167 185 184 208 180 188 215 213 209 197 192 189 189 191 183 173 174 169 138 131 137 133 141 148 125 349 10 12 53 48 112 132 147 140 137 135 135 132 128 130 130 129 131 135 134 137 135 130 129 124 128 142 145 145 145 146 153 153 153
256 189 182 188 161 186 237 168 176 196 178 202 197 189 200 216 185 193 211 228 170 154 148 171 141 116 122 173 199 189 188 183 177 200 198 211 206 191 194 195 187 180 194 142 149 149 138 153 157 160 154 152 32 16 49 62 77 108 124 127 133 130 125 124 133 136 136 134 134 136 138 134 136 133 129 128 132 133 129 134 142 149 156 164 163 156
156 133 209 185 200 230 273 352 29 71 273 260 250 249 233 193 192 177 145 138 140 130 109 87 109 167 174 195 168 170 171 215 203 185 188 203 197 193 200 189 184 170 146 142 162 162 166 160 154 155 144 125 95 82 81 119 103 112 130 136 134 136 127 124 117 117 123 129 128 130 130 132 137 135 131 122 99 76 83 130 136 130 103 35 13 169
113 191 176 114 221 227 221 208 132 142 218 241 223 210 213 215 170 147 118 142 151 134 143 109 41 16 193 168 169 167 193 203 199 174 191 195 197 181 160 160 152 139 135 129 121 130 121 136 147 150 148 152 154 140 146 118 133 116 130 138 144 140 135 135 131 134 141 144 141 140 137 135 134 134 132 132 127 117 91 69 74 64 102 111 82 75
183 186 158 193 197 228 210 165 185 199 224 223 203 200 184 178 147 156 181 188 196 180 160 137 131 108 137 58 128 158 178 173 186 166 167 183 194 174 167 157 155 155 160 154 140 145 151 147 145 145 157 170 160 152 143 148 122 139 144 154 158 152 146 144 141 145 147 151 155 156 150 146 141 144 135 135 132 127 122 111 78 79 83 86 92 94